EW7216 Weather Reports


Display with metric or nautical units.
time (UTC)temp
F
wind
direction
speed
MPH
gust
MPH
rain 1hr
in
rain 24hr
in
rain mn
in
humidity
%
barometer
mb
20260831014104 74 0.0 0.0 0.00 0.00 0.00 77 1021.0
20260831013104 74 0.0 0.0 0.00 0.00 0.00 77 1021.0
20260831012143 74 0.0 0.0 0.00 0.00 0.00 77 1020.9
20260831011103 75 104 1.0 2.0 0.00 0.00 0.00 78 1020.9
20260831005103 75 0.0 0.0 0.00 0.00 0.00 79 1020.8
20260831004104 75 0.0 0.0 0.00 0.00 0.00 78 1020.8
20260831003119 76 0.0 0.0 0.00 0.00 0.00 77 1020.7
20260831002104 77 0.0 2.0 0.00 0.00 0.00 75 1020.9
20260831001103 76 0.0 0.0 0.00 0.00 0.00 76 1020.9
20260831000103 76 0.0 0.0 0.00 0.00 0.00 76 1020.8
20260830235105 76 0.0 0.0 0.00 0.00 0.00 76 1020.8
20260830234103 77 169 0.0 1.0 0.00 0.00 0.00 76 1020.8
20260830233103 77 0.0 0.0 0.00 0.00 0.00 75 1020.7
20260830232104 77 0.0 0.0 0.00 0.00 0.00 75 1020.8
20260830231104 77 0.0 0.0 0.00 0.00 0.00 75 1020.8
20260830230104 76 0.0 0.0 0.00 0.00 0.00 76 1020.8
20260830225123 76 322 0.0 1.0 0.00 0.00 0.00 75 1020.8
20260830224103 76 316 1.0 2.0 0.00 0.00 0.00 75 1020.8
20260830223104 77 295 2.0 3.0 0.00 0.00 0.00 75 1020.8
20260830222104 77 317 2.0 4.0 0.00 0.00 0.00 74 1020.8
20260830221104 77 269 2.0 3.0 0.00 0.00 0.00 74 1020.7
20260830220103 77 303 3.0 4.0 0.00 0.00 0.00 74 1020.7
20260830215104 77 294 3.0 4.0 0.00 0.00 0.00 73 1020.7
20260830214103 77 300 3.0 6.0 0.00 0.00 0.00 74 1020.7
20260830213103 77 301 3.0 4.0 0.00 0.00 0.00 74 1020.8
20260830212124 77 305 2.0 3.0 0.00 0.00 0.00 74 1020.7
20260830211104 77 202 2.0 3.0 0.00 0.00 0.00 74 1020.5
20260830210103 77 304 3.0 4.0 0.00 0.00 0.00 74 1020.5
20260830205104 77 280 3.0 4.0 0.00 0.00 0.00 74 1020.4
20260830204103 77 301 4.0 6.0 0.00 0.00 0.00 74 1020.4
20260830203123 77 285 4.0 7.0 0.00 0.00 0.00 74 1020.4
20260830202124 77 298 4.0 6.0 0.00 0.00 0.00 75 1020.4
20260830201124 77 311 4.0 6.0 0.00 0.00 0.00 76 1020.4
20260830200124 77 316 4.0 7.0 0.00 0.00 0.00 76 1020.2
20260830195103 77 325 4.0 6.0 0.00 0.00 0.00 77 1020.3
20260830194103 77 277 4.0 6.0 0.00 0.00 0.00 76 1020.1
20260830193123 77 305 4.0 7.0 0.00 0.00 0.00 76 1020.1
20260830192124 77 314 5.0 8.0 0.00 0.00 0.00 75 1020.2
20260830191204 78 304 6.0 8.0 0.00 0.00 0.00 75 1020.1
20260830190124 78 316 5.0 9.0 0.00 0.00 0.00 74 1020.0
20260830185104 78 329 5.0 10.0 0.00 0.00 0.00 74 1019.9
20260830184123 78 302 5.0 8.0 0.00 0.00 0.00 73 1019.8
20260830183103 78 299 5.0 9.0 0.00 0.00 0.00 73 1019.8
20260830182123 79 284 6.0 9.0 0.00 0.00 0.00 72 1019.7
20260830181204 79 292 5.0 9.0 0.00 0.00 0.00 71 1019.6
20260830180143 79 297 6.0 8.0 0.00 0.00 0.00 71 1019.6
20260830175103 80 296 6.0 8.0 0.00 0.00 0.00 70 1019.5
20260830174103 80 351 6.0 9.0 0.00 0.00 0.00 70 1019.5
20260830173103 80 310 6.0 8.0 0.00 0.00 0.00 69 1019.4
20260830172104 81 303 6.0 7.0 0.00 0.00 0.00 68 1019.4
20260830171124 81 299 5.0 7.0 0.00 0.00 0.00 68 1019.4
20260830170103 82 328 6.0 9.0 0.00 0.00 0.00 67 1019.4
20260830165103 82 341 7.0 11.0 0.00 0.00 0.00 67 1019.4
20260830164104 83 302 6.0 11.0 0.00 0.00 0.00 66 1019.4
20260830163104 83 318 9.0 16.0 0.00 0.00 0.00 66 1019.3
20260830162103 84 335 7.0 13.0 0.00 0.00 0.00 64 1019.3
20260830161123 84 302 8.0 16.0 0.00 0.00 0.00 65 1019.3
20260830160103 85 229 5.0 6.0 0.00 0.00 0.00 63 1019.3
20260830155103 85 251 6.0 13.0 0.00 0.00 0.00 63 1019.4
20260830154104 86 286 8.0 15.0 0.00 0.00 0.00 62 1019.2
20260830153103 86 315 4.0 9.0 0.00 0.00 0.00 61 1019.2
20260830152123 86 345 7.0 13.0 0.00 0.00 0.00 60 1019.0
20260830151103 86 328 8.0 13.0 0.00 0.00 0.00 59 1019.1
20260830150124 87 297 7.0 14.0 0.00 0.00 0.00 59 1019.0
20260830145103 88 345 5.0 9.0 0.00 0.00 0.00 57 1019.0
20260830144124 87 65 2.0 8.0 0.00 0.00 0.00 56 1019.0
20260830143103 87 291 6.0 13.0 0.00 0.00 0.00 56 1019.0
20260830142103 88 295 8.0 15.0 0.00 0.00 0.00 56 1018.9
20260830141103 88 312 6.0 13.0 0.00 0.00 0.00 54 1019.0
20260830135103 89 33 5.0 9.0 0.00 0.00 0.00 51 1019.0
20260830134103 90 321 5.0 8.0 0.00 0.00 0.00 43 1019.1
20260830133104 89 202 3.0 11.0 0.00 0.00 0.00 43 1019.1
20260830132103 89 297 4.0 8.0 0.00 0.00 0.00 43 1019.0
20260830131104 89 129 1.0 3.0 0.00 0.00 0.00 42 1019.2
20260830125123 89 34 1.0 3.0 0.00 0.00 0.00 43 1019.2
20260830124124 89 167 1.0 3.0 0.00 0.00 0.00 44 1019.5
20260830123103 88 297 6.0 8.0 0.00 0.00 0.00 45 1019.5
20260830122103 89 291 1.0 4.0 0.00 0.00 0.00 45 1019.6
20260830121103 89 171 0.0 4.0 0.00 0.00 0.00 45 1019.6
20260830115103 87 76 2.0 4.0 0.00 0.00 0.00 46 1019.7
20260830114104 89 290 4.0 8.0 0.00 0.00 0.00 45 1019.7
20260830113103 89 46 1.0 4.0 0.00 0.00 0.00 45 1019.7
20260830112103 88 323 4.0 10.0 0.00 0.00 0.00 45 1019.8
20260830111103 88 171 2.0 4.0 0.00 0.00 0.00 45 1019.8
20260830105103 88 20 2.0 6.0 0.00 0.00 0.00 45 1019.9
20260830104103 88 349 3.0 6.0 0.00 0.00 0.00 46 1019.9
20260830103103 88 317 3.0 7.0 0.00 0.00 0.00 46 1020.0
20260830102104 89 14 2.0 7.0 0.00 0.00 0.00 46 1019.9
20260830101103 87 36 1.0 3.0 0.00 0.00 0.00 46 1020.0
20260830095105 87 111 3.0 7.0 0.00 0.00 0.00 50 1020.2
20260830094103 86 154 2.0 7.0 0.00 0.00 0.00 52 1020.2
20260830093103 86 351 2.0 6.0 0.00 0.00 0.00 51 1020.4
20260830092103 86 115 1.0 2.0 0.00 0.00 0.00 51 1020.5
20260830091103 88 135 0.0 2.0 0.00 0.00 0.00 42 1020.4
20260830090125 87 144 1.0 3.0 0.00 0.00 0.00 43 1020.5
20260830085123 86 322 1.0 3.0 0.00 0.00 0.00 52 1020.3
20260830084124 87 157 1.0 3.0 0.00 0.00 0.00 47 1020.4
20260830083103 86 146 1.0 4.0 0.00 0.00 0.00 49 1020.3
20260830082103 87 153 0.0 2.0 0.00 0.00 0.00 49 1020.3
20260830081105 84 147 2.0 7.0 0.00 0.00 0.00 53 1020.1
20260830075103 83 151 3.0 9.0 0.00 0.00 0.00 54 1020.1
20260830074103 85 151 2.0 8.0 0.00 0.00 0.00 52 1020.2
20260830073103 84 156 2.0 9.0 0.00 0.00 0.00 49 1020.2
20260830072103 81 156 4.0 7.0 0.00 0.00 0.00 53 1020.1
20260830071123 80 153 7.0 11.0 0.00 0.00 0.00 56 1020.1
20260830070122 80 149 7.0 11.0 0.00 0.00 0.00 57 1020.1
20260830065243 80 150 6.0 11.0 0.00 0.00 0.00 56 1020.2
20260830064103 80 154 5.0 9.0 0.00 0.00 0.00 56 1020.0
20260830063123 79 154 7.0 11.0 0.00 0.00 0.00 58 1019.9
20260830062105 79 148 3.0 8.0 0.00 0.00 0.00 56 1019.9
20260830061103 80 151 6.0 10.0 0.00 0.00 0.00 52 1020.0
20260830055103 80 153 7.0 10.0 0.00 0.00 0.00 51 1019.9
20260830054103 80 153 8.0 13.0 0.00 0.00 0.00 51 1019.9
20260830053103 80 155 9.0 13.0 0.00 0.00 0.00 52 1020.0
20260830052103 79 152 8.0 13.0 0.00 0.00 0.00 53 1019.8
20260830051123 79 155 10.0 14.0 0.00 0.00 0.00 55 1020.0
20260830045103 79 158 8.0 11.0 0.00 0.00 0.00 55 1019.9
20260830044104 78 151 9.0 14.0 0.00 0.00 0.00 59 1020.0
20260830043103 78 146 9.0 11.0 0.00 0.00 0.00 60 1020.0
20260830042103 78 156 6.0 16.0 0.00 0.00 0.00 62 1019.8
20260830041103 78 152 10.0 14.0 0.00 0.00 0.00 61 1019.9
20260830040123 76 152 9.0 15.0 0.00 0.00 0.00 70 1019.9
20260830035103 77 153 11.0 14.0 0.00 0.00 0.00 62 1019.8
20260830034124 76 156 11.0 15.0 0.00 0.00 0.00 69 1020.0
20260830033126 76 154 12.0 17.0 0.00 0.00 0.00 75 1019.9
20260830032123 76 155 10.0 15.0 0.00 0.00 0.00 73 1020.1
20260830031103 76 146 12.0 18.0 0.00 0.00 0.00 73 1020.0
20260830030103 76 142 11.0 17.0 0.00 0.00 0.00 72 1019.9
20260830025123 77 158 11.0 17.0 0.00 0.00 0.00 68 1019.8
20260830024104 78 153 8.0 16.0 0.00 0.00 0.00 66 1019.9
20260830023103 78 150 11.0 16.0 0.00 0.00 0.00 64 1020.0
20260830022123 78 157 9.0 16.0 0.00 0.00 0.00 65 1020.1
20260830021103 78 162 11.0 19.0 0.00 0.00 0.00 66 1020.1
20260830015103 77 158 12.0 18.0 0.00 0.00 0.00 67 1020.2